When you browse on this site, cookies collect data to enhance your experience and personalize the content and advertising you see.
Visit our Privacy Policy to learn more. By continuing to use the site, you agree to this use of cookies and data.

Hourly Weather Arteaga

Today, 3 July, Friday

Time Temperature Precipitation Wind Pressure Humidity
00:00 +19°C° 0 mm 1 mps 659 mmHg 90%
01:00 +19°C° 0 mm 1 mps 659 mmHg 90%
02:00 +19°C° 0 mm 1 mps 659 mmHg 90%
03:00 +19°C° 0.1 mm 1 mps 659 mmHg 89%
04:00 +17°C° 0.1 mm 0 mps 659 mmHg 88%
05:00 +17°C° 0.1 mm 0 mps 660 mmHg 87%
06:00 +19°C° 0 mm 0 mps 660 mmHg 81%
07:00 +21°C° 0 mm 0 mps 661 mmHg 76%
08:00 +23°C° 0 mm 0 mps 662 mmHg 70%
09:00 +26°C° 0.2 mm 1 mps 662 mmHg 65%
10:00 +27°C° 0.2 mm 1 mps 662 mmHg 61%
11:00 +29°C° 0.2 mm 1 mps 662 mmHg 57%
12:00 +29°C° 1.6 mm 1 mps 662 mmHg 59%
13:00 +28°C° 1.6 mm 1 mps 661 mmHg 62%
14:00 +28°C° 1.6 mm 1 mps 661 mmHg 64%
15:00 +27°C° 0.7 mm 1 mps 660 mmHg 66%
16:00 +26°C° 0.7 mm 2 mps 660 mmHg 68%
17:00 +26°C° 0.7 mm 2 mps 659 mmHg 70%
18:00 +24°C° 0.6 mm 1 mps 660 mmHg 77%
19:00 +22°C° 0.6 mm 1 mps 660 mmHg 85%
20:00 +20°C° 0.6 mm 1 mps 660 mmHg 92%
21:00 +20°C° 0.5 mm 1 mps 660 mmHg 91%
22:00 +19°C° 0.5 mm 1 mps 660 mmHg 91%
23:00 +19°C° 0.5 mm 1 mps 660 mmHg 91%

Tomorrow, 4 July, Saturday

Time Temperature Precipitation Wind Pressure Humidity
00:00 +19°C° 0.2 mm 1 mps 659 mmHg 91%
01:00 +18°C° 0.2 mm 1 mps 659 mmHg 91%
02:00 +18°C° 0.2 mm 1 mps 659 mmHg 91%
03:00 +18°C° 0.2 mm 1 mps 659 mmHg 90%
04:00 +18°C° 0.2 mm 1 mps 659 mmHg 90%
05:00 +18°C° 0.2 mm 1 mps 659 mmHg 90%
06:00 +20°C° 0.1 mm 1 mps 660 mmHg 84%
07:00 +20°C° 0.1 mm 0 mps 661 mmHg 78%
08:00 +22°C° 0.1 mm 0 mps 662 mmHg 72%
09:00 +24°C° 0 mm 0 mps 662 mmHg 66%
10:00 +28°C° 0 mm 1 mps 663 mmHg 60%
11:00 +30°C° 0 mm 1 mps 663 mmHg 54%
12:00 +29°C° 0.9 mm 1 mps 662 mmHg 57%
13:00 +29°C° 0.9 mm 1 mps 662 mmHg 60%
14:00 +28°C° 0.9 mm 1 mps 661 mmHg 63%
15:00 +27°C° 1.1 mm 1 mps 661 mmHg 68%
16:00 +26°C° 1.1 mm 1 mps 660 mmHg 73%
17:00 +25°C° 1.1 mm 1 mps 660 mmHg 79%
18:00 +24°C° 0.6 mm 1 mps 660 mmHg 84%
19:00 +22°C° 0.6 mm 1 mps 660 mmHg 89%
20:00 +20°C° 0.6 mm 1 mps 660 mmHg 94%
21:00 +20°C° 0.1 mm 1 mps 660 mmHg 95%
22:00 +20°C° 0.1 mm 1 mps 660 mmHg 95%
23:00 +20°C° 0.1 mm 1 mps 660 mmHg 96%

Day after tomorrow, 5 July, Sunday

Time Temperature Precipitation Wind Pressure Humidity
00:00 +19°C° 0.1 mm 1 mps 660 mmHg 95%
01:00 +19°C° 0.1 mm 1 mps 659 mmHg 95%
02:00 +17°C° 0.1 mm 0 mps 659 mmHg 94%
03:00 +17°C° 0.6 mm 0 mps 659 mmHg 94%
04:00 +19°C° 0.6 mm 1 mps 659 mmHg 94%
05:00 +19°C° 0.6 mm 1 mps 659 mmHg 95%
06:00 +21°C° 0.1 mm 1 mps 660 mmHg 90%
07:00 +22°C° 0.1 mm 1 mps 660 mmHg 86%
08:00 +24°C° 0.1 mm 1 mps 661 mmHg 82%
09:00 +25°C° 0.3 mm 1 mps 661 mmHg 74%
10:00 +27°C° 0.3 mm 1 mps 662 mmHg 67%
11:00 +29°C° 0.3 mm 1 mps 662 mmHg 59%
12:00 +29°C° 0.5 mm 1 mps 661 mmHg 60%
13:00 +29°C° 0.5 mm 1 mps 661 mmHg 61%
14:00 +29°C° 0.5 mm 1 mps 660 mmHg 62%
15:00 +28°C° 0.2 mm 1 mps 660 mmHg 67%
16:00 +27°C° 0.2 mm 1 mps 659 mmHg 72%
17:00 +26°C° 0.2 mm 1 mps 658 mmHg 77%
18:00 +24°C° 0.3 mm 1 mps 658 mmHg 83%
19:00 +22°C° 0.3 mm 1 mps 659 mmHg 90%
20:00 +21°C° 0.3 mm 1 mps 659 mmHg 96%
21:00 +21°C° 0.3 mm 1 mps 659 mmHg 96%
22:00 +20°C° 0.3 mm 1 mps 659 mmHg 96%
23:00 +20°C° 0.3 mm 1 mps 659 mmHg 97%

6 July, Monday

Time Temperature Precipitation Wind Pressure Humidity
00:00 +20°C° 0.1 mm 1 mps 659 mmHg 96%
01:00 +19°C° 0.1 mm 1 mps 659 mmHg 96%
02:00 +17°C° 0.1 mm 0 mps 659 mmHg 96%
03:00 +17°C° 0 mm 0 mps 659 mmHg 96%
04:00 +19°C° 0 mm 1 mps 659 mmHg 95%
05:00 +19°C° 0 mm 1 mps 659 mmHg 95%
06:00 +21°C° 0 mm 1 mps 659 mmHg 89%
07:00 +22°C° 0 mm 1 mps 660 mmHg 84%
08:00 +24°C° 0 mm 1 mps 661 mmHg 79%
09:00 +26°C° 0 mm 1 mps 661 mmHg 70%
10:00 +28°C° 0 mm 1 mps 662 mmHg 61%
11:00 +30°C° 0 mm 1 mps 662 mmHg 52%
12:00 +30°C° 0.2 mm 1 mps 661 mmHg 52%
13:00 +31°C° 0.2 mm 1 mps 661 mmHg 52%
14:00 +31°C° 0.2 mm 1 mps 661 mmHg 52%
15:00 +29°C° 0.3 mm 1 mps 660 mmHg 58%
16:00 +28°C° 0.3 mm 1 mps 660 mmHg 64%
17:00 +27°C° 0.3 mm 2 mps 659 mmHg 71%
18:00 +25°C° 0.1 mm 1 mps 659 mmHg 78%
19:00 +23°C° 0.1 mm 1 mps 659 mmHg 86%
20:00 +21°C° 0.1 mm 1 mps 659 mmHg 94%
21:00 +21°C° 0.1 mm 1 mps 659 mmHg 93%
22:00 +20°C° 0.1 mm 1 mps 659 mmHg 92%
23:00 +20°C° 0.1 mm 1 mps 660 mmHg 91%

7 July, Tuesday

Time Temperature Precipitation Wind Pressure Humidity
00:00 +19°C° 0 mm 1 mps 660 mmHg 90%
01:00 +19°C° 0 mm 1 mps 659 mmHg 90%
02:00 +19°C° 0 mm 1 mps 659 mmHg 89%
03:00 +19°C° 0 mm 1 mps 659 mmHg 88%
04:00 +19°C° 0 mm 1 mps 659 mmHg 87%
05:00 +18°C° 0 mm 1 mps 659 mmHg 86%
06:00 +21°C° 0 mm 1 mps 660 mmHg 80%
07:00 +23°C° 0 mm 1 mps 661 mmHg 73%
08:00 +25°C° 0 mm 1 mps 662 mmHg 67%
09:00 +26°C° 0 mm 1 mps 663 mmHg 61%
10:00 +28°C° 0 mm 1 mps 663 mmHg 55%
11:00 +30°C° 0 mm 1 mps 663 mmHg 49%
12:00 +29°C° 0.2 mm 1 mps 662 mmHg 53%
13:00 +29°C° 0.2 mm 2 mps 662 mmHg 57%
14:00 +28°C° 0.2 mm 2 mps 661 mmHg 60%
15:00 +27°C° 0.4 mm 2 mps 661 mmHg 64%
16:00 +26°C° 0.4 mm 2 mps 660 mmHg 68%
17:00 +25°C° 0.4 mm 2 mps 660 mmHg 72%
18:00 +24°C° 0.1 mm 1 mps 660 mmHg 75%
19:00 +22°C° 0.1 mm 1 mps 660 mmHg 79%
20:00 +21°C° 0.1 mm 1 mps 660 mmHg 83%
21:00 +20°C° 0 mm 1 mps 660 mmHg 80%
22:00 +20°C° 0 mm 1 mps 660 mmHg 77%
23:00 +20°C° 0 mm 1 mps 661 mmHg 75%

8 July, Wednesday

Time Temperature Precipitation Wind Pressure Humidity
00:00 +19°C° 0 mm 1 mps 660 mmHg 72%
01:00 +19°C° 0 mm 1 mps 660 mmHg 70%
02:00 +19°C° 0 mm 1 mps 660 mmHg 68%
03:00 +19°C° 0 mm 1 mps 660 mmHg 67%
04:00 +19°C° 0 mm 1 mps 660 mmHg 66%
05:00 +19°C° 0 mm 1 mps 660 mmHg 65%
06:00 +21°C° 0 mm 1 mps 660 mmHg 63%
07:00 +23°C° 0 mm 1 mps 661 mmHg 60%
08:00 +23°C° 0 mm 0 mps 662 mmHg 57%
09:00 +27°C° 0 mm 1 mps 662 mmHg 53%
10:00 +29°C° 0 mm 1 mps 663 mmHg 49%
11:00 +30°C° 0 mm 1 mps 663 mmHg 45%
12:00 +30°C° 0.1 mm 1 mps 662 mmHg 48%
13:00 +29°C° 0.1 mm 2 mps 662 mmHg 52%
14:00 +29°C° 0.1 mm 2 mps 661 mmHg 56%
15:00 +28°C° 0.7 mm 2 mps 661 mmHg 61%
16:00 +26°C° 0.7 mm 2 mps 660 mmHg 67%
17:00 +25°C° 0.7 mm 2 mps 660 mmHg 72%
18:00 +24°C° 0.3 mm 2 mps 660 mmHg 78%
19:00 +22°C° 0.3 mm 1 mps 660 mmHg 84%
20:00 +20°C° 0.3 mm 1 mps 660 mmHg 90%
21:00 +20°C° 0.3 mm 1 mps 660 mmHg 88%
22:00 +20°C° 0.3 mm 1 mps 660 mmHg 86%
23:00 +19°C° 0.3 mm 1 mps 661 mmHg 85%
Show more